Highspire, PA

6:37 AM EDT on October 01, 2016 (GMT -0400)
Harrisburg International

Weather History for KMDT - June, 2014

Change the Weather History Date:

Thursday, June 5, 2014

  Actual Average Record
Temperature  
Mean Temperature 69 °F 68 °F  
Max Temperature 77 °F 78 °F 99 °F (1925)
Min Temperature 60 °F 59 °F 46 °F (1990)
Degree Days  
Heating Degree Days 0 1  
Month to date heating degree days 0 8  
Since 1 June heating degree days 0 8  
Since 1 July heating degree days 5725 5259  
Cooling Degree Days 4 5  
Month to date cooling degree days 29 21  
Year to date cooling degree days 89 86  
Since 1 June cooling degree days 29 21  
Growing Degree Days 18 (Base 50)    
Moisture  
Dew Point 56 °F    
Average Humidity 66    
Maximum Humidity 90    
Minimum Humidity 41    
Precipitation  
Precipitation 0.24 in 0.12 in 1.25 in (1975)
Month to date precipitation 0.61 0.57  
Year to date precipitation 22.25 16.10  
Sea Level Pressure  
Sea Level Pressure 29.73 in    
Wind  
Wind Speed 10 mph (NNW)    
Max Wind Speed 21 mph    
Max Gust Speed 27 mph    
Visibility 8 miles    
Events Rain    
T = Trace of Precipitation, MM = Missing Value Source: NWS Daily Summary

Daily Weather History Graph

Daily Weather History Graph

Search for Another Location

Airport or City:

Trip Planner

Search our weather history database for the weather conditions in past years. The results will help you decide how hot, cold, wet, or windy it might be!

Date:

Astronomy

Jun. 05, 2014 Rise Set
Actual Time 5:38 AM EDT 8:33 PM EDT
Civil Twilight 5:05 AM EDT 9:05 PM EDT
Nautical Twilight 4:24 AM EDT 9:46 PM EDT
Astronomical Twilight 3:37 AM EDT 10:34 PM EDT
Moon 12:52 PM EDT (6/5) 12:59 AM EDT (6/5)
Length of Visible Light 15h 59m
Length of Day
14h 54m
Waxing Crescent, 48% of the Moon is Illuminated
Jun 5
Waxing Crescent
Jun 5
First Quarter
Jun 13
Full
Jun 19
Last Quarter
Jun 27
New

Hourly Weather History & Observations

Time (EDT) Temp. Dew Point Humidity Pressure Visibility Wind Dir Wind Speed Gust Speed Precip Events Conditions
12:56 AM 62.6 °F 57.2 °F 82% 29.71 in 3.0 mi East 9.2 mph - N/A Rain Rain
1:49 AM 62.1 °F 59.0 °F 90% 29.69 in 4.0 mi ENE 5.8 mph - 0.09 in Rain Rain
1:56 AM 62.1 °F 59.0 °F 90% 29.69 in 4.0 mi East 9.2 mph - 0.10 in Rain Light Rain
2:33 AM 61.0 °F 57.9 °F 90% 29.69 in 5.0 mi Variable 4.6 mph - 0.05 in Rain Light Rain
2:56 AM 60.1 °F 57.9 °F 93% 29.69 in 5.0 mi Variable 6.9 mph - 0.06 in Rain Light Rain
3:22 AM 60.1 °F 57.0 °F 90% 29.67 in 10.0 mi NE 9.2 mph - 0.01 in Rain Light Rain
3:56 AM 60.1 °F 57.0 °F 90% 29.67 in 4.0 mi Variable 4.6 mph - 0.03 in Rain Rain
4:56 AM 60.1 °F 57.0 °F 90% 29.68 in 4.0 mi NNE 6.9 mph - 0.02 in Rain Light Rain
5:09 AM 60.1 °F 57.0 °F 90% 29.68 in 4.0 mi NNE 6.9 mph - 0.00 in Rain Light Rain
5:56 AM 60.1 °F 57.0 °F 90% 29.69 in 3.0 mi NNE 5.8 mph - 0.03 in Rain Light Rain
6:56 AM 60.1 °F 57.0 °F 90% 29.69 in 10.0 mi Variable 3.5 mph - 0.00 in   Overcast
7:09 AM 60.1 °F 57.0 °F 90% 29.70 in 10.0 mi Calm Calm - N/A   Overcast
7:56 AM 61.0 °F 57.0 °F 87% 29.71 in 10.0 mi NW 10.4 mph - N/A   Overcast
8:19 AM 62.1 °F 57.9 °F 86% 29.72 in 10.0 mi NW 9.2 mph - N/A   Overcast
8:56 AM 63.0 °F 57.0 °F 81% 29.73 in 10.0 mi NNW 9.2 mph - N/A   Overcast
9:36 AM 63.0 °F 57.0 °F 81% 29.73 in 10.0 mi NNW 9.2 mph - N/A   Overcast
9:56 AM 64.0 °F 57.0 °F 78% 29.73 in 10.0 mi NNW 8.1 mph - N/A   Overcast
10:56 AM 68.0 °F 57.9 °F 70% 29.73 in 10.0 mi NNW 6.9 mph - N/A   Scattered Clouds
11:03 AM 68.0 °F 57.9 °F 70% 29.73 in 10.0 mi NNW 8.1 mph - N/A   Mostly Cloudy
11:23 AM 70.0 °F 57.9 °F 65% 29.73 in 10.0 mi North 8.1 mph - N/A   Scattered Clouds
11:56 AM 71.1 °F 57.9 °F 63% 29.73 in 10.0 mi NNW 10.4 mph - N/A   Scattered Clouds
12:56 PM 73.9 °F 55.9 °F 53% 29.72 in 10.0 mi NW 8.1 mph - N/A   Scattered Clouds
2:56 PM 75.0 °F 51.1 °F 43% 29.73 in 10.0 mi NNW 16.1 mph 21.9 mph N/A   Scattered Clouds
3:56 PM 77.0 °F 53.1 °F 43% 29.73 in 10.0 mi NW 15.0 mph - N/A   Scattered Clouds
4:56 PM 75.9 °F 50.0 °F 40% 29.73 in 10.0 mi NW 20.7 mph 26.5 mph N/A   Scattered Clouds
5:56 PM 75.0 °F 51.1 °F 43% 29.74 in 10.0 mi WNW 19.6 mph - N/A   Scattered Clouds
6:56 PM 73.9 °F 52.0 °F 46% 29.76 in 10.0 mi NW 18.4 mph - N/A   Scattered Clouds
7:56 PM 72.0 °F 50.0 °F 46% 29.78 in 10.0 mi NW 15.0 mph - N/A   Scattered Clouds
8:56 PM 69.1 °F 52.0 °F 54% 29.81 in 10.0 mi NW 11.5 mph - N/A   Partly Cloudy
9:56 PM 66.9 °F 51.1 °F 57% 29.85 in 10.0 mi NW 8.1 mph - N/A   Scattered Clouds
10:56 PM 66.9 °F 51.1 °F 57% 29.86 in 10.0 mi WNW 9.2 mph - N/A   Mostly Cloudy
11:56 PM 66.0 °F 53.1 °F 63% 29.86 in 10.0 mi NW 5.8 mph - N/A   Mostly Cloudy